Theta_e
320 319 319 319 320 320 319 319 318 317 316 316 316 316 316 316 317 320 330 330 333 342 344 347 346 348 349 349 350 352 351 351 340 341 341 340 342 344 343 345 344 343 344 344 344
320 320 319 319 319 320 319 319 318 317 317 316 316 316 317 317 318 323 329 331 331 336 346 348 349 348 350 349 350 351 350 351 341 338 341 340 343 343 343 344 342 343 345 346 346
319 320 320 319 319 319 319 319 318 317 317 317 316 316 317 318 324 333 332 330 333 342 348 350 348 349 351 344 347 350 349 344 340 340 342 341 343 343 342 341 341 343 345 346 346
317 319 320 320 319 319 320 319 318 317 317 317 316 316 317 319 330 329 332 336 345 347 345 349 349 350 346 346 346 351 348 346 340 341 342 341 343 343 343 342 342 341 344 346 346
315 317 320 320 319 319 320 319 318 317 317 317 316 316 318 320 328 331 332 334 345 344 345 345 347 348 344 345 346 347 344 340 342 342 343 343 343 343 342 343 342 342 344 345 345
314 316 319 320 320 319 320 320 318 317 316 316 316 316 318 320 332 331 332 341 345 346 352 347 344 344 344 346 345 345 344 338 341 341 341 341 342 344 342 342 341 342 344 344 344
312 314 316 320 320 319 320 320 319 317 315 315 316 317 318 323 331 332 330 343 346 347 351 351 350 347 346 345 344 344 340 338 336 339 337 342 344 343 343 342 341 342 342 343 343
311 312 314 318 320 320 319 318 318 316 315 314 315 316 320 321 329 332 335 341 346 348 347 347 344 348 346 345 343 345 340 340 339 340 337 341 343 342 342 342 341 342 342 342 342
311 311 313 316 320 320 318 317 317 316 314 314 315 316 320 322 324 331 331 335 339 344 345 344 341 344 345 342 343 342 348 347 344 343 338 337 339 342 341 341 341 341 342 342 342
311 311 312 315 319 319 319 317 316 316 315 314 315 321 322 324 325 327 327 329 333 335 336 335 342 339 338 339 344 344 349 350 349 346 345 343 339 343 341 341 341 341 342 342 342
311 311 312 313 318 319 320 318 318 321 315 317 318 319 321 323 326 328 329 329 330 331 333 337 339 341 341 341 341 344 345 346 345 345 347 346 343 344 342 341 341 341 342 342 342
311 311 312 312 316 320 321 322 325 324 323 327 327 327 327 326 321 327 328 329 330 330 334 334 338 336 337 338 342 345 346 347 346 346 347 347 348 341 342 342 341 341 342 342 343
311 311 312 312 316 320 320 322 325 325 322 326 327 328 327 326 324 324 328 329 332 331 333 335 337 336 336 339 342 342 344 345 344 346 344 345 347 345 341 342 342 342 342 342 343
311 311 312 312 317 320 321 322 325 324 321 324 325 326 326 324 323 325 328 329 329 333 332 333 332 327 325 335 340 341 342 343 343 347 348 344 353 341 342 342 340 340 341 342 342
311 311 312 312 318 321 324 327 325 324 329 327 325 325 325 323 324 325 328 328 327 330 326 333 327 325 324 325 338 340 340 343 343 344 342 345 344 340 340 344 343 342 340 341 342
311 312 312 313 315 322 326 325 326 323 330 329 324 322 322 322 323 324 326 327 327 325 323 323 324 324 323 325 335 325 324 323 324 335 345 342 344 343 343 344 342 343 342 341 341
311 312 313 313 316 320 325 325 322 326 326 329 323 319 319 320 321 322 323 323 322 324 323 321 323 322 324 324 322 322 321 323 327 333 339 331 341 342 336 338 341 342 343 343 342
312 312 314 313 315 321 325 322 328 325 327 327 320 318 319 320 321 322 321 321 321 319 318 321 322 323 322 322 323 323 321 323 328 326 324 326 334 336 336 336 342 344 343 343 343
312 315 316 314 314 325 325 322 319 323 329 329 321 321 321 322 323 323 321 320 320 318 323 319 322 321 321 321 322 322 321 319 318 318 323 323 327 331 336 336 339 340 342 343 344
313 327 322 318 314 323 321 321 322 324 327 327 324 321 320 322 321 321 321 321 322 318 320 320 321 322 323 320 319 321 317 320 315 324 326 322 328 334 330 332 335 339 345 344 344
317 328 322 314 316 324 320 319 323 327 327 327 328 328 323 327 320 320 322 321 322 320 319 316 319 322 321 322 321 320 320 313 313 316 321 322 328 326 332 329 341 345 348 348 344
318 323 316 318 320 315 320 322 325 326 326 324 325 326 326 327 327 326 325 322 329 319 320 317 316 321 324 322 321 321 322 315 319 320 315 319 324 336 341 343 346 346 349 351 348
318 325 315 317 318 315 317 321 324 324 323 324 325 325 327 327 330 331 331 330 328 320 320 318 319 321 322 323 325 329 327 316 313 314 320 325 326 344 345 345 343 341 346 350 353
325 323 320 316 318 317 321 321 322 324 322 324 324 325 325 328 325 330 329 330 328 328 324 323 316 320 323 322 325 330 330 324 323 326 324 322 332 347 346 344 339 340 345 348 350
322 318 319 316 317 319 320 320 323 325 322 324 325 324 323 328 328 327 324 324 327 322 326 320 324 325 326 328 327 329 328 327 328 325 331 328 337 342 344 341 336 337 341 341 339
321 320 322 319 319 319 316 323 324 322 320 326 325 322 322 324 324 325 324 323 324 320 323 321 329 328 329 326 326 326 332 333 334 335 329 332 340 335 337 335 333 336 337 336 335
319 321 322 319 318 318 319 320 320 320 322 324 321 320 321 322 322 322 322 321 320 320 319 322 325 325 330 323 328 330 328 334 333 332 335 332 336 335 334 332 332 332 333 333 333
Wind_Speed
7 7 6 5 4 3 2 2 2 3 3 2 3 3 2 4 5 5 9 7 7 10 11 13 11 5 3 3 2 2 3 2 6 6 4 10 4 9 5 17 2 5 14 26 25
7 7 6 6 5 4 3 2 2 3 3 2 3 3 3 5 7 8 8 10 10 7 14 15 12 7 1 1 0 1 2 6 6 7 6 12 11 15 6 13 3 5 15 25 25
7 7 7 6 5 4 3 2 2 2 3 3 3 3 3 5 3 2 10 10 8 6 5 8 2 3 2 3 5 4 4 3 5 17 18 16 12 14 14 4 10 21 28 27 25
8 7 6 6 5 4 4 3 2 2 3 3 3 2 3 3 2 3 12 7 9 10 7 7 6 3 3 3 6 3 11 9 2 16 18 14 17 10 19 7 14 20 29 28 27
8 8 7 5 5 5 4 3 2 2 3 3 3 2 3 2 1 1 13 12 13 13 9 10 9 4 3 3 1 3 4 4 7 18 20 21 17 12 18 5 15 23 27 27 25
8 7 6 6 5 4 4 4 2 2 3 3 2 2 2 3 2 3 12 13 12 16 10 10 5 8 6 3 2 7 7 2 11 9 7 8 4 9 11 11 24 26 29 27 25
9 8 6 5 5 5 4 3 3 3 3 3 3 4 5 6 3 4 11 10 12 14 8 10 7 7 10 1 10 6 4 6 7 8 4 12 1 5 11 19 28 29 28 28 25
10 9 7 5 4 4 5 3 3 3 3 3 3 3 5 5 7 7 8 10 13 13 13 8 5 8 3 7 4 4 5 4 4 4 2 11 6 4 19 27 28 32 31 28 27
11 9 7 5 4 4 4 3 3 3 3 3 3 3 5 5 10 9 7 5 8 9 8 8 8 3 5 4 5 6 3 3 5 7 2 2 4 6 26 28 25 28 32 33 30
12 10 8 5 3 3 3 2 2 3 4 3 5 2 6 2 6 11 11 10 2 1 3 4 1 3 4 5 2 1 1 1 1 3 5 4 4 5 22 27 27 30 31 33 32
13 10 8 5 3 3 3 2 2 2 7 6 1 4 3 3 2 9 10 11 10 6 0 1 4 4 6 7 3 4 3 4 3 4 2 4 4 7 17 17 18 24 28 33 34
15 11 7 6 4 4 6 2 5 2 7 10 16 18 17 16 5 7 7 10 5 3 3 4 6 7 6 9 7 6 4 4 5 4 3 3 8 6 14 23 28 27 29 35 35
16 12 8 5 5 7 8 5 4 9 1 6 11 12 10 8 6 9 13 11 4 5 5 5 5 3 3 3 7 4 7 5 6 3 2 2 7 6 7 19 22 26 32 33 36
18 14 8 5 4 6 6 7 5 3 4 5 4 5 10 6 3 10 17 12 1 6 6 5 5 3 1 3 7 7 15 12 6 4 3 2 5 5 8 12 14 25 32 35 35
18 15 8 5 3 7 8 3 3 4 3 2 4 3 10 10 2 8 16 12 7 6 5 7 2 4 4 4 5 5 15 18 5 3 4 1 2 6 2 9 16 24 34 38 39
19 16 9 7 9 9 6 1 7 5 4 1 5 5 6 1 2 2 8 8 5 4 3 6 3 4 7 4 8 4 8 8 5 4 3 5 7 7 5 11 16 17 32 33 35
18 15 9 7 5 13 6 9 5 3 4 3 4 4 3 4 2 2 4 4 5 3 3 5 4 4 4 2 1 4 6 2 2 1 6 2 5 9 5 7 10 20 30 29 31
18 12 7 8 12 15 10 4 2 4 5 3 3 3 7 5 3 1 4 2 2 5 3 2 8 4 4 7 9 4 7 6 3 3 5 2 5 6 3 7 9 12 19 19 23
16 10 5 9 17 16 10 3 7 6 3 4 2 4 2 2 2 2 5 5 8 9 7 5 6 4 4 3 5 4 3 3 7 3 3 3 7 9 7 6 8 9 7 4 11
13 4 2 8 19 15 4 5 4 4 4 3 3 3 7 4 5 5 6 4 6 12 6 4 3 2 3 2 6 3 5 4 4 2 3 4 4 4 9 9 5 6 6 7 11
7 1 2 13 20 9 4 7 5 7 5 3 2 0 4 5 7 5 4 5 1 2 6 6 4 6 2 4 4 2 2 7 5 4 4 0 6 3 9 9 2 8 13 11 8
2 2 9 19 4 1 4 5 1 3 2 4 1 5 6 4 4 4 4 5 9 8 10 7 5 3 3 3 3 2 4 5 5 3 2 3 6 5 6 6 12 16 17 15 15
4 3 11 1 3 1 3 3 3 2 4 3 3 5 2 3 3 0 1 1 11 4 8 7 1 2 6 7 5 4 1 5 5 3 4 5 6 5 10 13 18 22 23 22 24
3 2 3 4 2 4 2 3 4 5 5 4 3 2 3 1 4 4 2 3 8 5 5 5 3 7 8 7 4 4 3 4 4 4 3 5 3 5 6 8 15 25 27 29 32
6 2 1 1 2 2 1 2 3 3 2 2 1 0 6 3 2 1 1 5 3 10 3 4 3 1 2 1 4 3 3 4 3 4 4 2 5 3 4 5 14 22 25 29 29
5 4 4 2 4 1 3 2 2 2 0 2 4 1 4 6 6 8 4 0 2 5 3 4 2 3 5 6 2 4 1 6 4 4 1 6 4 2 16 20 23 23 25 25 23
8 5 3 6 4 2 1 4 3 3 4 3 6 4 6 3 3 1 2 2 1 0 2 3 4 3 3 3 0 2 3 2 5 4 2 3 2 4 13 15 16 18 19 19 19
Wind_Direction
5 2 357 354 341 333 322 296 266 255 248 256 284 296 305 288 281 235 219 209 195 161 171 178 191 242 297 345 23 79 64 140 190 165 218 158 116 153 126 142 137 173 160 161 162
357 356 354 348 339 332 326 307 278 260 256 258 282 304 312 292 288 254 189 192 193 192 178 182 185 212 228 339 234 148 121 212 201 173 180 171 144 161 122 152 127 107 156 167 170
353 349 346 343 334 327 324 312 292 269 256 261 280 296 314 320 299 133 190 180 178 155 207 176 184 150 273 206 204 196 219 212 244 186 173 162 154 168 142 222 192 165 159 171 176
351 345 339 335 328 317 314 303 280 265 263 258 282 303 315 329 110 109 189 165 146 156 197 184 192 190 246 216 205 234 242 253 192 168 158 166 165 157 172 211 204 189 174 174 183
348 341 335 331 322 310 300 288 269 257 246 253 268 296 313 275 351 117 180 173 164 173 178 199 206 211 298 274 221 240 302 13 147 168 173 164 180 181 195 204 175 177 177 180 183
344 340 331 325 317 300 295 286 262 245 243 241 237 274 272 290 90 149 180 181 183 189 199 219 247 282 279 291 5 308 314 80 123 141 134 140 158 174 193 170 171 176 182 188 192
343 338 332 320 312 299 290 272 265 252 242 238 237 262 253 231 181 177 191 192 190 201 195 235 275 284 317 218 334 315 34 48 46 143 138 137 40 229 185 176 174 180 188 194 200
344 337 331 321 304 288 287 262 245 240 239 243 253 262 264 232 207 195 187 198 203 208 217 265 327 289 310 306 23 39 54 52 343 29 214 159 246 225 185 179 182 190 191 200 204
346 336 327 318 299 281 268 253 246 251 250 251 259 248 259 237 221 210 211 198 226 233 242 277 319 340 352 36 28 2 110 64 339 50 127 194 257 198 180 186 184 194 199 204 210
348 338 325 313 293 272 248 224 229 247 243 250 249 276 233 250 260 241 231 223 189 38 178 211 204 65 28 66 255 277 360 139 253 318 57 305 284 167 188 188 193 199 205 208 216
347 339 323 306 279 242 212 192 260 279 237 226 213 240 317 55 225 239 221 219 243 287 197 139 58 247 218 209 242 104 74 293 245 197 156 232 250 213 193 204 208 209 212 216 220
344 339 321 300 271 222 206 197 96 8 303 257 248 255 257 266 290 222 204 185 159 218 109 18 249 229 237 183 182 136 188 281 263 157 113 279 270 203 187 215 214 209 217 220 225
340 337 322 291 259 223 214 180 188 347 248 275 230 240 251 230 219 212 195 190 165 183 184 188 235 315 212 196 147 172 177 223 215 46 40 88 291 214 217 211 221 230 229 229 229
336 334 321 291 249 215 195 193 236 297 52 275 232 226 194 170 257 211 200 185 246 217 186 226 279 253 319 260 145 157 224 201 150 110 247 105 279 262 205 208 212 225 229 232 233
332 328 315 244 221 173 163 198 281 151 352 162 194 194 173 170 150 202 197 196 179 206 118 239 264 315 357 257 155 226 191 210 170 88 10 162 9 275 143 216 219 217 229 232 233
329 323 306 256 223 173 161 180 142 40 257 347 148 166 118 227 158 121 175 201 217 159 334 241 263 245 208 188 181 129 68 37 49 72 300 220 163 275 194 220 229 219 228 231 229
326 318 292 239 198 188 179 155 44 146 323 189 195 161 132 162 215 178 148 152 164 105 311 319 248 268 201 201 57 91 81 13 24 33 225 339 128 247 262 245 206 203 218 224 231
326 313 278 220 189 173 173 68 192 242 248 322 103 80 171 158 225 117 105 204 154 99 103 118 313 193 167 202 182 175 153 151 233 206 265 323 242 256 251 277 203 216 226 227 236
327 312 267 200 182 174 178 106 211 209 276 345 91 99 228 201 114 127 187 211 201 174 173 161 272 279 190 215 130 188 170 176 104 18 38 252 289 303 345 92 78 110 129 176 233
331 323 175 179 177 176 98 226 231 225 331 9 197 138 183 196 161 162 204 215 210 186 162 198 301 277 297 128 52 128 149 76 17 187 291 294 280 251 344 331 13 45 32 329 294
330 115 106 157 158 177 167 227 265 277 258 19 342 169 211 180 180 190 214 295 267 144 124 144 127 276 2 7 172 52 38 49 114 121 165 309 280 233 274 279 55 42 36 22 343
356 71 153 149 99 62 158 203 268 284 300 303 240 224 193 146 179 211 213 231 334 167 169 206 151 235 246 330 276 164 117 136 117 230 113 145 275 343 350 61 89 63 58 63 79
14 83 168 147 144 255 270 269 238 248 231 226 259 207 32 126 138 186 267 210 16 137 169 186 218 11 2 354 352 74 112 93 103 75 192 138 263 44 45 49 56 68 74 76 88
354 70 133 230 90 122 74 267 266 264 242 239 278 148 103 109 27 161 349 311 356 32 56 111 114 166 197 198 155 166 189 161 127 109 182 226 275 49 43 63 67 73 84 87 88
20 47 53 251 346 50 59 320 256 290 355 31 79 303 145 160 77 131 344 323 355 15 46 95 121 76 359 113 148 154 190 164 162 147 152 238 131 111 59 35 63 88 93 89 85
35 22 2 18 321 22 80 263 270 162 312 256 163 70 139 161 188 193 152 163 250 337 71 349 155 121 357 355 111 108 132 109 61 39 217 112 86 124 107 95 80 86 90 86 81
27 18 2 3 353 95 260 287 306 292 43 76 132 87 80 169 175 90 207 178 192 143 53 65 122 98 206 9 171 349 255 93 105 58 198 184 58 134 87 61 67 79 82 80 75